Simultaneous Nadir Overpasses (SNOs) Predictions

Prediction of SNOs over PacNW region [( 10.00, 139.50) to ( 22.70, 165.60)] between AQUA and NPP Satellites:

Table of predicted SNOs over PacNW region for the next 30.0 days since TLE Epoch: 3/26/2022
Index Date (AQUA) Time (AQUA) AQUA Lat,Lon Date (NPP) Time (NPP) NPP Lat,Lon Distance(km) Time Diff (sec)
1 03/27/2022 15:57:43 22.64, 148.32 03/27/2022 16:01:12 26.06, 145.29 488.83 209
2 03/30/2022 02:40:31 22.66, 160.74 03/30/2022 02:37:02 23.60, 158.23 276.80 209
3 04/04/2022 15:07:43 22.58, 160.84 04/04/2022 15:11:11 23.37, 157.29 373.41 208
4 04/07/2022 03:29:22 22.68, 148.55 04/07/2022 03:27:20 22.14, 145.91 277.86 122
5 04/15/2022 02:39:16 22.68, 161.10 04/15/2022 02:36:32 22.14, 158.61 263.56 164
